This is the latest recevied weather packets stored in our database for station/object AE0NK. If no packets are shown the sender has not sent any weather packets the latest 10 day(s).
| Time | Temp. | Humidity | Pressure | Rain* | Wind** | Luminosity | Snow |
|---|---|---|---|---|---|---|---|
| 1778161401 | 8.33° C | 62% | 1013.6 hPa | 0 mm | - | 88 W/m² | - |
| 1778161097 | 7.78° C | 62% | 1013.8 hPa | 0 mm | - | 70 W/m² | - |
| 1778160795 | 7.78° C | 63% | 1013.9 hPa | 0 mm | - | 63 W/m² | - |
| 1778160494 | 7.78° C | 62% | 1013.8 hPa | 0 mm | - | 51 W/m² | - |
| 1778160191 | 7.78° C | 62% | 1013.8 hPa | 0 mm | - | 60 W/m² | - |
| 1778159910 | 7.78° C | 62% | 1013.4 hPa | 0 mm | - | 97 W/m² | - |
| 1778159607 | 7.22° C | 62% | 1013.3 hPa | 0 mm | - | 105 W/m² | - |
| 1778159304 | 7.22° C | 63% | 1013.3 hPa | 0 mm | - | 127 W/m² | - |
| 1778159001 | 6.67° C | 64% | 1013.4 hPa | 0 mm | - | 114 W/m² | - |
| 1778158696 | 6.67° C | 65% | 1013.5 hPa | 0 mm | - | 116 W/m² | - |
| 1778158393 | 6.11° C | 65% | 1013.5 hPa | 0 mm | - | 95 W/m² | - |
| 1778158092 | 6.11° C | 66% | 1013.3 hPa | 0 mm | - | 183 W/m² | - |
| 1778157810 | 5.56° C | 66% | 1013.3 hPa | 0 mm | - | 132 W/m² | - |
| 1778157509 | 5.56° C | 66% | 1013.1 hPa | 0 mm | - | 79 W/m² | - |
| 1778157206 | 5.56° C | 67% | 1013.2 hPa | 0 mm | - | 88 W/m² | - |
| 1778156903 | 5° C | 68% | 1013.3 hPa | 0 mm | - | 100 W/m² | - |
| 1778156601 | 5° C | 67% | 1013.3 hPa | 0 mm | - | 58 W/m² | - |
| 1778156299 | 5° C | 67% | 1013.4 hPa | 0 mm | - | 39 W/m² | - |
| 1778155998 | 5° C | 67% | 1013.3 hPa | 0 mm | - | 35 W/m² | - |
| 1778155694 | 5° C | 67% | 1013.4 hPa | 0 mm | - | 30 W/m² | - |
| 1778155392 | 5° C | 67% | 1013.5 hPa | 0 mm | - | 46 W/m² | - |
| 1778155105 | 5° C | 67% | 1013.5 hPa | 0 mm | - | 26 W/m² | - |
| 1778154803 | 5° C | 66% | 1013.6 hPa | 0 mm | - | 26 W/m² | - |
| 1778154501 | 5° C | 66% | 1013.7 hPa | 0 mm | - | 26 W/m² | - |
| 1778154197 | 5° C | 66% | 1013.8 hPa | 0 mm | - | 23 W/m² | - |
* Rain latest hour (hover to see other rain measurements)
** Current wind speed in m/s (hover to see current wind gust speed)